DW9584 Weather Reports


time (UTC)temp
F
wind
direction
speed
knots
gust
knots
rain 1hr
in
rain 24hr
in
rain mn
in
humidity
%
barometer
mb
20260507190017 64 160 0.9 3.5 0.00 0.19 0.18 42 1009.1
20260507184511 64 1 0.9 3.5 0.00 0.19 0.18 40 1009.4
20260507183025 63 328 1.7 6.1 0.00 0.19 0.18 44 1009.4
20260507181507 63 163 0.0 6.1 0.00 0.19 0.18 41 1009.3
20260507180005 63 346 1.7 3.5 0.00 0.19 0.18 46 1009.6
20260507174541 62 295 0.9 6.1 0.00 0.19 0.18 46 1009.9
20260507173024 62 11 0.9 3.5 0.00 0.19 0.18 42 1010.1
20260507171522 62 193 0.9 4.3 0.00 0.19 0.18 44 1010.3
20260507170018 62 10 1.7 4.3 0.00 0.19 0.18 46 1010.4
20260507164513 61 300 0.9 4.3 0.00 0.19 0.18 47 1010.6
20260507163018 61 288 0.9 4.3 0.00 0.19 0.18 45 1010.9
20260507161509 60 356 0.0 3.5 0.00 0.20 0.18 57 1011.0
20260507160011 59 39 0.0 3.5 0.00 0.22 0.18 58 1011.1
20260507154524 58 57 0.9 3.5 0.00 0.24 0.18 58 1011.5
20260507153027 57 84 0.0 6.1 0.00 0.25 0.18 59 1011.7
20260507151521 57 25 0.9 6.1 0.00 0.26 0.18 64 1012.0
20260507150019 56 26 0.0 3.5 0.00 0.26 0.18 66 1012.1
20260507144528 56 77 0.9 6.1 0.00 0.26 0.18 68 1012.2
20260507143018 55 199 0.9 2.6 0.00 0.26 0.18 72 1012.3
20260507141514 54 359 0.9 3.5 0.00 0.26 0.18 77 1012.4
20260507140037 53 156 0.0 3.5 0.00 0.26 0.18 80 1012.5
20260507134524 53 314 0.0 2.6 0.00 0.26 0.18 82 1012.5
20260507133024 52 169 0.0 2.6 0.00 0.26 0.18 85 1012.5
20260507131541 52 27 0.9 2.6 0.00 0.26 0.18 87 1012.4
20260507130020 51 268 0.0 1.7 0.00 0.26 0.18 91 1012.5
20260507124522 51 305 0.9 3.5 0.00 0.26 0.18 93 1012.5
20260507123018 51 329 0.0 4.3 0.00 0.26 0.18 94 1012.5
20260507121504 51 314 0.9 2.6 0.00 0.26 0.18 94 1012.3
20260507120005 51 247 0.0 0.0 0.00 0.26 0.18 95 1012.2
20260507114504 50 247 0.0 0.0 0.00 0.26 0.18 94 1012.2
20260507113004 50 232 0.0 1.7 0.00 0.26 0.18 94 1012.2
20260507111506 50 266 0.0 1.7 0.00 0.26 0.18 94 1012.0
20260507110004 50 266 0.0 1.7 0.00 0.26 0.18 94 1011.8
20260507104506 50 227 0.0 0.9 0.00 0.26 0.18 94 1011.6
20260507103004 50 359 0.0 1.7 0.00 0.26 0.18 94 1011.4
20260507101503 50 359 0.0 0.0 0.00 0.26 0.18 94 1011.3
20260507100009 49 359 0.0 0.0 0.01 0.26 0.18 94 1011.2
20260507094504 49 359 0.0 0.0 0.01 0.26 0.18 94 1011.2
20260507093005 49 359 0.0 0.0 0.01 0.26 0.18 94 1011.2
20260507091505 49 359 0.0 0.0 0.01 0.26 0.18 94 1011.0
20260507090007 49 359 0.0 1.7 0.00 0.25 0.17 93 1010.7
20260507084514 49 6 0.0 1.7 0.00 0.25 0.17 93 1010.9
20260507083017 50 34 0.0 1.7 0.00 0.25 0.17 93 1010.9
20260507081508 50 340 0.0 1.7 0.00 0.25 0.17 93 1010.7
20260507080009 50 13 0.0 1.7 0.00 0.25 0.17 93 1011.1
20260507074510 50 345 0.0 1.7 0.00 0.25 0.17 93 1010.9
20260507073008 50 249 0.9 1.7 0.00 0.25 0.17 93 1011.1
20260507071516 50 169 0.0 1.7 0.00 0.25 0.17 93 1011.2
20260507070019 51 243 0.0 3.5 0.01 0.25 0.17 93 1011.5
20260507064512 51 272 0.0 1.7 0.02 0.25 0.17 92 1011.2
20260507063014 51 266 0.0 1.7 0.14 0.25 0.17 92 1010.8
20260507061513 52 129 0.0 1.7 0.17 0.25 0.17 92 1010.8
20260507060014 53 335 0.0 1.7 0.16 0.24 0.16 91 1011.2
20260507054512 54 62 0.0 1.7 0.15 0.23 0.15 90 1010.7
20260507053012 54 326 0.9 4.3 0.03 0.11 0.03 89 1011.1
20260507051516 55 354 0.9 2.6 0.00 0.08 0.00 88 1009.8
20260507050036 55 319 0.0 1.7 0.00 0.08 0.00 88 1009.9
20260507044522 56 192 0.0 2.6 0.00 0.08 0.00 87 1009.9
20260507043019 56 271 0.0 5.2 0.01 0.08 0.00 87 1009.5
20260507041518 58 318 0.9 6.1 0.01 0.08 0.00 87 1009.7
20260507040022 61 318 0.9 4.3 0.01 0.08 0.00 89 1009.5
20260507034516 61 299 0.0 1.7 0.01 0.08 0.08 88 1009.4
20260507033029 62 278 0.0 3.5 0.00 0.07 0.07 85 1009.4
20260507031510 63 304 0.0 2.6 0.00 0.07 0.07 84 1009.3
20260507030007 63 359 0.0 3.5 0.00 0.07 0.07 86 1009.0
20260507024510 64 271 0.9 5.2 0.00 0.07 0.07 86 1009.3
20260507023006 65 283 0.9 1.7 0.00 0.07 0.07 86 1009.2
20260507021502 65 207 0.0 1.7 0.00 0.07 0.07 84 1009.0
20260507020025 65 220 0.0 1.7 0.00 0.07 0.07 84 1009.1
20260507014523 65 198 0.0 2.6 0.00 0.07 0.07 83 1009.1
20260507013017 65 228 0.0 2.6 0.00 0.07 0.07 84 1008.9
20260507011520 65 271 0.0 1.7 0.00 0.07 0.07 84 1008.8
20260507010026 65 256 0.0 1.7 0.00 0.07 0.07 84 1008.9
20260507004509 65 243 0.0 1.7 0.00 0.07 0.07 84 1009.1
20260507003007 65 240 0.0 0.9 0.00 0.07 0.07 83 1008.6
20260507001524 66 248 0.0 4.3 0.00 0.07 0.07 82 1008.4
20260507000027 66 238 0.0 2.6 0.00 0.07 0.07 81 1008.3
20260506234520 67 164 0.0 1.7 0.00 0.07 0.07 80 1008.3
20260506233020 67 207 0.0 1.7 0.00 0.07 0.07 80 1008.3
20260506231519 67 212 0.0 2.6 0.00 0.07 0.07 79 1008.1
20260506230013 67 240 0.0 3.5 0.00 0.07 0.07 78 1008.2
20260506224514 68 283 0.0 2.6 0.00 0.07 0.07 78 1008.1
20260506223015 68 262 0.0 7.0 0.00 0.07 0.07 77 1008.2
20260506221526 68 224 0.0 3.5 0.00 0.07 0.07 77 1007.9
20260506220030 68 167 0.9 3.5 0.00 0.07 0.07 78 1008.0
20260506214524 68 231 0.0 3.5 0.00 0.07 0.07 77 1007.8
20260506213030 68 170 1.7 4.3 0.00 0.07 0.07 77 1007.9
20260506211528 68 183 1.7 5.2 0.00 0.07 0.07 76 1007.7
20260506210015 67 227 1.7 4.3 0.00 0.07 0.07 78 1007.7
20260506204514 67 315 0.0 7.0 0.00 0.07 0.07 79 1007.8
20260506203030 66 264 0.9 7.8 0.00 0.07 0.07 80 1007.7
20260506201533 66 250 0.9 3.5 0.00 0.07 0.07 80 1007.5
20260506200028 65 199 0.9 6.1 0.00 0.07 0.07 81 1007.8
20260506194525 65 244 0.0 4.3 0.00 0.07 0.07 82 1008.0
20260506193022 65 223 1.7 4.3 0.00 0.07 0.07 82 1008.1
20260506191522 64 174 0.0 7.0 0.00 0.07 0.07 83 1008.3